sat.trackr.live / text

‹ back to catalog

GEESAT-4 03

NORAD 65121 · 2025-170C

PAYLOAD ACTIVE UNKNOWN

§ Identity

Operator
Country
PRC
Launch date
2025-08-08
Launch site
YSLA
Launch vehicle
Mass (kg)
RCS (m²)

External: N2YO · Heavens-Above · Gunter

§ Orbital elements

Epoch: 2026-05-25T03:45:52.539840Z

Period
97.04 min
Inclination
49.9934°
Eccentricity
0.0020400
Mean motion
14.83969894 rev/d
Perigee alt
602.6 km
Apogee alt
631.1 km
Semi-major
6,995.0 km
B*
1.9436e-4
RAAN
280.8942°
Arg perigee
332.5714°
Mean anomaly
27.4146°
Rev number
4,301

§ Raw data

GEESAT-4 031 65121U 25170C   26145.15685810  .00001408  00000+0  19436-3 0  99902 65121  49.9934 280.8942 0020400 332.5714  27.4146 14.83969894 43012

JSON: /api/v1/satellites/65121 · /tle

For live sub-satellite position, see the globe view (requires WebGL).

§ Visibility from observer

Set your observer location to see the next 7 days of passes ≥ 10°. The values pass through the URL so the page stays shareable.

No JS? Fill the form by hand. The geolocation button needs JavaScript.